When you browse on this site, cookies collect data to enhance your experience and personalize the content and advertising you see.
Visit our Privacy Policy to learn more. By continuing to use the site, you agree to this use of cookies and data.
  • In France
  • List of Countries
  • For 7 days
  • Water Temperature
  • Weather Map
  • Weather Widgets
  • user-avatar
    Login

    Hourly Weather Cairo

    Today, 15 November, Friday

    Time Temperature Precipitation Wind Pressure Humidity
    00:00 +22°C° 0 mm 4 mps 757 mmHg 77%
    01:00 +21°C° 0 mm 4 mps 757 mmHg 79%
    02:00 +21°C° 0 mm 3 mps 757 mmHg 82%
    03:00 +20°C° 0 mm 2 mps 757 mmHg 83%
    04:00 +20°C° 0 mm 2 mps 758 mmHg 84%
    05:00 +20°C° 0 mm 2 mps 758 mmHg 85%
    06:00 +20°C° 0 mm 2 mps 758 mmHg 82%
    07:00 +21°C° 0 mm 2 mps 758 mmHg 79%
    08:00 +21°C° 0 mm 3 mps 759 mmHg 75%
    09:00 +24°C° 0 mm 3 mps 759 mmHg 66%
    10:00 +25°C° 0 mm 3 mps 759 mmHg 57%
    11:00 +26°C° 0 mm 3 mps 759 mmHg 48%
    12:00 +27°C° 0 mm 4 mps 759 mmHg 42%
    13:00 +28°C° 0 mm 4 mps 758 mmHg 36%
    14:00 +29°C° 0 mm 4 mps 758 mmHg 30%
    15:00 +28°C° 0 mm 5 mps 758 mmHg 34%
    16:00 +27°C° 0 mm 5 mps 758 mmHg 38%
    17:00 +26°C° 0 mm 6 mps 758 mmHg 43%
    18:00 +24°C° 0 mm 6 mps 758 mmHg 48%
    19:00 +23°C° 0 mm 6 mps 759 mmHg 54%
    20:00 +22°C° 0 mm 5 mps 759 mmHg 59%
    21:00 +21°C° 0 mm 5 mps 759 mmHg 64%
    22:00 +20°C° 0 mm 4 mps 759 mmHg 68%
    23:00 +20°C° 0 mm 3 mps 760 mmHg 73%

    Tomorrow, 16 November, Saturday

    Time Temperature Precipitation Wind Pressure Humidity
    00:00 +20°C° 0 mm 3 mps 759 mmHg 75%
    01:00 +19°C° 0 mm 3 mps 759 mmHg 77%
    02:00 +19°C° 0 mm 2 mps 759 mmHg 79%
    03:00 +19°C° 0 mm 2 mps 759 mmHg 80%
    04:00 +19°C° 0 mm 3 mps 759 mmHg 82%
    05:00 +18°C° 0 mm 3 mps 759 mmHg 84%
    06:00 +19°C° 0 mm 3 mps 759 mmHg 79%
    07:00 +20°C° 0 mm 3 mps 759 mmHg 74%
    08:00 +20°C° 0 mm 4 mps 758 mmHg 70%
    09:00 +22°C° 0 mm 4 mps 758 mmHg 62%
    10:00 +23°C° 0 mm 4 mps 758 mmHg 54%
    11:00 +26°C° 0 mm 5 mps 758 mmHg 45%
    12:00 +27°C° 0 mm 5 mps 757 mmHg 41%
    13:00 +28°C° 0 mm 6 mps 757 mmHg 37%
    14:00 +28°C° 0 mm 6 mps 756 mmHg 33%
    15:00 +27°C° 0 mm 6 mps 756 mmHg 39%
    16:00 +27°C° 0 mm 6 mps 756 mmHg 46%
    17:00 +26°C° 0 mm 6 mps 756 mmHg 52%
    18:00 +24°C° 0 mm 6 mps 756 mmHg 58%
    19:00 +22°C° 0 mm 5 mps 756 mmHg 64%
    20:00 +21°C° 0 mm 5 mps 757 mmHg 70%
    21:00 +21°C° 0 mm 5 mps 757 mmHg 73%
    22:00 +20°C° 0 mm 4 mps 757 mmHg 76%
    23:00 +20°C° 0 mm 4 mps 757 mmHg 79%

    Day after tomorrow, 17 November, Sunday

    Time Temperature Precipitation Wind Pressure Humidity
    00:00 +19°C° 0 mm 3 mps 757 mmHg 81%
    01:00 +19°C° 0 mm 3 mps 756 mmHg 83%
    02:00 +19°C° 0 mm 3 mps 756 mmHg 85%
    03:00 +19°C° 0 mm 3 mps 756 mmHg 85%
    04:00 +18°C° 0 mm 3 mps 756 mmHg 85%
    05:00 +18°C° 0 mm 3 mps 756 mmHg 85%
    06:00 +19°C° 0 mm 3 mps 756 mmHg 82%
    07:00 +20°C° 0 mm 3 mps 756 mmHg 78%
    08:00 +20°C° 0 mm 3 mps 756 mmHg 75%
    09:00 +22°C° 0 mm 4 mps 756 mmHg 66%
    10:00 +25°C° 0 mm 4 mps 756 mmHg 58%
    11:00 +27°C° 0 mm 5 mps 756 mmHg 50%
    12:00 +27°C° 0 mm 5 mps 755 mmHg 44%
    13:00 +28°C° 0 mm 5 mps 755 mmHg 39%
    14:00 +29°C° 0 mm 5 mps 754 mmHg 34%
    15:00 +28°C° 0 mm 5 mps 755 mmHg 35%
    16:00 +27°C° 0 mm 5 mps 755 mmHg 36%
    17:00 +27°C° 0 mm 5 mps 755 mmHg 37%
    18:00 +26°C° 0 mm 5 mps 755 mmHg 40%
    19:00 +25°C° 0 mm 5 mps 756 mmHg 42%
    20:00 +23°C° 0 mm 5 mps 756 mmHg 44%
    21:00 +23°C° 0 mm 5 mps 756 mmHg 46%
    22:00 +22°C° 0 mm 4 mps 756 mmHg 48%
    23:00 +22°C° 0 mm 4 mps 756 mmHg 49%

    18 November, Monday

    Time Temperature Precipitation Wind Pressure Humidity
    00:00 +21°C° 0 mm 4 mps 756 mmHg 49%
    01:00 +21°C° 0 mm 3 mps 755 mmHg 49%
    02:00 +21°C° 0 mm 3 mps 755 mmHg 49%
    03:00 +21°C° 0 mm 3 mps 755 mmHg 48%
    04:00 +20°C° 0 mm 3 mps 755 mmHg 47%
    05:00 +20°C° 0 mm 3 mps 756 mmHg 45%
    06:00 +21°C° 0 mm 3 mps 756 mmHg 44%
    07:00 +22°C° 0 mm 3 mps 756 mmHg 43%
    08:00 +22°C° 0 mm 3 mps 757 mmHg 41%
    09:00 +25°C° 0 mm 4 mps 757 mmHg 37%
    10:00 +26°C° 0 mm 5 mps 757 mmHg 33%
    11:00 +28°C° 0 mm 5 mps 757 mmHg 29%
    12:00 +29°C° 0 mm 6 mps 756 mmHg 27%
    13:00 +29°C° 0 mm 6 mps 756 mmHg 25%
    14:00 +30°C° 0 mm 7 mps 756 mmHg 24%
    15:00 +29°C° 0 mm 6 mps 756 mmHg 25%
    16:00 +28°C° 0 mm 6 mps 756 mmHg 26%
    17:00 +26°C° 0 mm 6 mps 756 mmHg 27%
    18:00 +24°C° 0 mm 6 mps 757 mmHg 30%
    19:00 +23°C° 0 mm 6 mps 757 mmHg 33%
    20:00 +22°C° 0 mm 6 mps 757 mmHg 36%
    21:00 +21°C° 0 mm 5 mps 758 mmHg 39%
    22:00 +21°C° 0 mm 5 mps 758 mmHg 43%
    23:00 +20°C° 0 mm 5 mps 758 mmHg 46%

    19 November, Tuesday

    Time Temperature Precipitation Wind Pressure Humidity
    00:00 +20°C° 0 mm 5 mps 758 mmHg 46%
    01:00 +20°C° 0 mm 4 mps 758 mmHg 46%
    02:00 +19°C° 0 mm 4 mps 758 mmHg 46%
    03:00 +19°C° 0 mm 4 mps 758 mmHg 45%
    04:00 +19°C° 0 mm 4 mps 758 mmHg 44%
    05:00 +19°C° 0 mm 4 mps 758 mmHg 43%
    06:00 +19°C° 0 mm 4 mps 758 mmHg 40%
    07:00 +20°C° 0 mm 4 mps 758 mmHg 37%
    08:00 +20°C° 0 mm 5 mps 759 mmHg 34%
    09:00 +22°C° 0 mm 5 mps 759 mmHg 29%
    10:00 +24°C° 0 mm 6 mps 759 mmHg 25%
    11:00 +28°C° 0 mm 6 mps 759 mmHg 21%
    12:00 +28°C° 0 mm 6 mps 758 mmHg 20%
    13:00 +29°C° 0 mm 7 mps 758 mmHg 19%
    14:00 +29°C° 0 mm 7 mps 757 mmHg 18%
    15:00 +28°C° 0 mm 6 mps 757 mmHg 19%
    16:00 +27°C° 0 mm 6 mps 757 mmHg 20%
    17:00 +26°C° 0 mm 6 mps 757 mmHg 21%
    18:00 +23°C° 0 mm 6 mps 758 mmHg 29%
    19:00 +22°C° 0 mm 6 mps 758 mmHg 37%
    20:00 +20°C° 0 mm 6 mps 758 mmHg 45%
    21:00 +19°C° 0 mm 5 mps 758 mmHg 48%
    22:00 +19°C° 0 mm 5 mps 759 mmHg 51%
    23:00 +18°C° 0 mm 4 mps 759 mmHg 54%

    20 November, Wednesday

    Time Temperature Precipitation Wind Pressure Humidity
    00:00 +18°C° 0 mm 4 mps 759 mmHg 55%
    01:00 +17°C° 0 mm 4 mps 758 mmHg 56%
    02:00 +17°C° 0 mm 4 mps 758 mmHg 57%
    03:00 +17°C° 0 mm 4 mps 758 mmHg 57%
    04:00 +16°C° 0 mm 3 mps 758 mmHg 56%
    05:00 +16°C° 0 mm 3 mps 758 mmHg 56%
    06:00 +17°C° 0 mm 3 mps 758 mmHg 53%
    07:00 +18°C° 0 mm 3 mps 759 mmHg 51%
    08:00 +18°C° 0 mm 4 mps 759 mmHg 48%
    09:00 +20°C° 0 mm 4 mps 759 mmHg 38%
    10:00 +22°C° 0 mm 5 mps 759 mmHg 28%
    11:00 +26°C° 0 mm 5 mps 759 mmHg 18%
    12:00 +26°C° 0 mm 5 mps 759 mmHg 17%
    13:00 +27°C° 0 mm 5 mps 758 mmHg 15%
    14:00 +28°C° 0 mm 5 mps 758 mmHg 14%
    15:00 +26°C° 0 mm 5 mps 758 mmHg 16%
    16:00 +25°C° 0 mm 5 mps 758 mmHg 18%
    17:00 +23°C° 0 mm 5 mps 758 mmHg 19%
    18:00 +22°C° 0 mm 5 mps 758 mmHg 24%
    19:00 +20°C° 0 mm 5 mps 758 mmHg 29%
    20:00 +19°C° 0 mm 5 mps 759 mmHg 34%
    21:00 +17°C° 0 mm 5 mps 759 mmHg 37%
    22:00 +18°C° 0 mm 4 mps 759 mmHg 40%
    23:00 +17°C° 0 mm 4 mps 759 mmHg 42%
    Show more